Location: Shenandoah County Park
(38.9356°N, 78.4524°W)
Time: 14:20:01
(UTC-05:00)

Vanguard 2 Rocket - Pass Details

Date: 10 December 2023
Orbit: 555 x 3309 km, 32.9° (Epoch: 03 March)

Event Time Altitude Azimuth Distance (km) Brightness Sun altitude
Rises 16:02:19 0° 268° (W) 6,287 12.2 7.2°
Reaches altitude 10° 16:06:01 10° 266° (W) 5,545 12.0 6.6°
Maximum altitude 16:24:16 71° 188° (S) 3,422 10.1 3.7°
Drops below altitude 10° 16:43:33 10° 109° (ESE) 5,806 10.6 0.5°
Sets 16:47:32 0° 107° (ESE) 6,582 10.9 -0.1°
